Regional Weather Roundup
Issued by NWS

Home | Current Version | Previous Version | Text Only | Print | Product List | Glossary Off
Versions: 1 2 3 4 5 6 7 8 9 10 11 12 13 14 15 16 17 18 19 20 21 22 23 24 25 26 27 28 29 30 31 32 33 34 35 36 37 38 39 40 41 42 43 44 45 46 47 48 49 50

000
ASUS43 KBIS 272010
RWRND

NORTH DAKOTA REGIONAL WEATHER ROUNDUP
NATIONAL WEATHER SERVICE BISMARCK ND
300 PM CDT THU APR 27 2017

NOTE: "FAIR" INDICATES FEW OR NO CLOUDS BELOW 12,000 FEET WITH NO
SIGNIFICANT WEATHER AND/OR OBSTRUCTIONS TO VISIBILITY.


NDZ001>003-009>011-017-272100-
NORTHWEST NORTH DAKOTA

CITY           SKY/WX    TMP DP  RH WIND       PRES   REMARKS
WILLISTON      FAIR      51  18  27 SE13G20   29.73F
MINOT          FAIR      50  15  24 N12       29.73F
MINOT AFB      SUNNY     48   7  18 N10       29.73S
$$

NDZ018>021-031>035-040>046-272100-
SOUTHWEST NORTH DAKOTA

CITY           SKY/WX    TMP DP  RH WIND       PRES   REMARKS
BISMARCK       FAIR      51  26  37 NE10      29.71F
DICKINSON      FAIR      47  22  37 E16       29.67F
GARRISON       NOT AVBL
HETTINGER ARPT SUNNY     47  25  42 VRB5      29.68F
$$

NDZ004>008-012>016-024-026-027-054-272100-
NORTHEAST NORTH DAKOTA

CITY           SKY/WX    TMP DP  RH WIND       PRES   REMARKS
GRAND FORKS    MOSUNNY   44  31  60 N20G25    29.67F
GRND FRKS AFB  PTSUNNY   43  30  61 N18       29.67F
DEVILS LAKE    PTSUNNY   46  28  49 N22G28    29.69F
$$

NDZ022-023-025-028>030-036>039-047>053-272100-
SOUTHEAST NORTH DAKOTA

CITY           SKY/WX    TMP DP  RH WIND       PRES   REMARKS
FARGO          PTSUNNY   35  25  66 N16       29.69S
JAMESTOWN      FAIR      46  29  51 N16G24    29.68S
$$





USA.gov is the U.S. government's official web portal to all federal, state and local government web resources and services.